Skip Page Navigation
NASA JPL Caltech
NASA Logo - Jet Propulsion Laboratory + View the NASA Portal
+ Center for Near-Earth Object Studies
JPL Home Earth Solar System Stars & Galaxies Technology
JPL Solar System Dynamics
BODIES ORBITS EPHEMERIDES TOOLS PHYSICAL DATA DISCOVERY FAQ SITE MAP
IMPORTANT: The SSD Announcement email list is now available. Major changes are coming in the near future, including possible hostname and/or URL changes. To be notified of such changes, subscribe to this email list.

Please visit this page for more details.


JPL Small-Body Database Browser
Search: [ help ]  
268338 (2005 SK150)
Classification: Main-belt Asteroid          SPK-ID: 2268338
Ephemeris | Orbit Diagram | Orbital Elements | Mission Design | Physical Parameters | Discovery Circumstances ]

[ show orbit diagram ]
Orbital Elements at Epoch 2458600.5 (2019-Apr-27.0) TDB
Reference: JPL 10 (heliocentric ecliptic J2000)
 Element Value Uncertainty (1-sigma)   Units 
e .2018434166655926 4.6193e-08  
a 2.368243654621612 1.814e-08 au
q 1.890229263876176 1.0733e-07 au
i 4.781795326666499 6.5128e-06 deg
node 177.8338415298775 5.786e-05 deg
peri 79.54136674541938 6.1636e-05 deg
M 4.279484086859068 1.6137e-05 deg
tp 2458584.675612272283
(2019-Apr-11.17561227)
5.9698e-05 TDB
period 1331.18372830757
3.64
1.5294e-05
4.187e-08
d
yr
n .2704359979352317 3.1071e-09 deg/d
Q 2.846258045367048 2.1801e-08 au
  Orbit Determination Parameters
   # obs. used (total)      292  
   data-arc span      6617 days (18.12 yr)  
   first obs. used      2001-09-12  
   last obs. used      2019-10-25  
   planetary ephem.      DE431  
   SB-pert. ephem.      SB431-N16  
   condition code      0  
   norm. resid. RMS      .61583  
   source      ORB  
   producer      Otto Matic  
   solution date      2019-Nov-08 04:16:09  

Additional Information
 Earth MOID = .882257 au 
 Jupiter MOID = 2.22381 au 
 T_jup = 3.514 
[ show covariance matrix ]

Ephemeris | Orbit Diagram | Orbital Elements | Mission Design | Physical Parameters | Discovery Circumstances ]

Physical Parameter Table
Parameter Symbol Value Units Sigma Reference Notes
absolute magnitude H 17.5   n/a MPO433742  

268338 (2005 SK150)          Discovered 2005-Sep-25 by Spacewatch at Kitt Peak
Reference: 20110319/Numbers.arcLast Updated: 2011-03-23

Alternate Designations
 2005 SK150 = 2001 RH96 
Ephemeris | Orbit Diagram | Orbital Elements | Mission Design | Physical Parameters | Discovery Circumstances ]
ABOUT SSD CREDITS/AWARDS PRIVACY/COPYRIGHT GLOSSARY LINKS
FirstGov 2020-Jan-20 17:45 UT
(server date/time)  
NASA Home Page
Site Manager:   Ryan S. Park
Webmaster  Alan B. Chamberlin